Precipitable_Water
0.34 0.34 0.36 0.36 0.37 0.37 0.39 0.40 0.40 0.41 0.41 0.41 0.40 0.40 0.42 0.43 0.44 0.44 0.46 0.47 0.48 0.47 0.45 0.44 0.48 0.54 0.55 0.55 0.54 0.54 0.55 0.56 0.62 0.73 0.80 0.85 0.90 0.92 0.93 0.92 0.92 0.95 0.98 0.99 1.01 1.02 1.03 1.01 1.02 1.01 1.01 0.97 0.99 1.00 0.99 0.96 0.93 0.90 0.87 0.85 0.83 0.82 0.78 0.75 0.72 0.70 0.69 0.69 0.63 0.60 0.60 0.59 0.56 0.60 0.58 0.56 0.55 0.58 0.60 0.61 0.60 0.58 0.57 0.56 0.52
0.34 0.35 0.36 0.37 0.37 0.38 0.38 0.40 0.40 0.41 0.40 0.39 0.39 0.40 0.41 0.43 0.44 0.44 0.44 0.47 0.48 0.47 0.46 0.45 0.46 0.53 0.55 0.54 0.52 0.52 0.54 0.55 0.59 0.69 0.78 0.84 0.87 0.90 0.90 0.90 0.89 0.91 0.93 0.93 0.96 1.00 1.02 1.00 1.00 1.02 1.04 1.03 1.00 0.96 0.94 0.92 0.90 0.88 0.87 0.86 0.83 0.82 0.84 0.77 0.69 0.63 0.58 0.60 0.57 0.58 0.57 0.58 0.53 0.58 0.58 0.57 0.57 0.58 0.58 0.61 0.60 0.57 0.57 0.56 0.52
0.35 0.35 0.35 0.36 0.36 0.38 0.38 0.38 0.39 0.39 0.38 0.38 0.38 0.39 0.41 0.43 0.44 0.43 0.43 0.46 0.49 0.48 0.47 0.45 0.45 0.51 0.54 0.54 0.51 0.49 0.52 0.54 0.56 0.63 0.76 0.82 0.84 0.86 0.89 0.88 0.87 0.87 0.88 0.90 0.91 0.94 0.97 0.97 0.97 0.98 0.99 0.97 0.97 0.95 0.93 0.91 0.91 0.87 0.86 0.88 0.84 0.80 0.74 0.68 0.62 0.57 0.56 0.54 0.55 0.53 0.54 0.56 0.56 0.55 0.59 0.59 0.58 0.61 0.58 0.56 0.56 0.55 0.56 0.55 0.51
0.35 0.35 0.35 0.35 0.36 0.37 0.37 0.38 0.38 0.38 0.37 0.38 0.38 0.39 0.41 0.42 0.43 0.43 0.44 0.46 0.47 0.48 0.47 0.45 0.43 0.48 0.52 0.53 0.50 0.48 0.49 0.52 0.53 0.58 0.71 0.81 0.84 0.85 0.86 0.87 0.87 0.87 0.87 0.87 0.90 0.91 0.91 0.94 0.94 0.95 0.95 0.93 0.92 0.91 0.90 0.89 0.88 0.86 0.82 0.79 0.74 0.67 0.61 0.57 0.55 0.53 0.52 0.49 0.53 0.55 0.57 0.57 0.57 0.57 0.56 0.55 0.56 0.54 0.56 0.57 0.57 0.54 0.54 0.54 0.52
0.34 0.35 0.35 0.34 0.35 0.35 0.36 0.36 0.37 0.37 0.37 0.38 0.38 0.40 0.40 0.41 0.42 0.42 0.43 0.44 0.46 0.46 0.45 0.45 0.43 0.45 0.48 0.52 0.51 0.48 0.47 0.50 0.50 0.52 0.63 0.77 0.83 0.85 0.85 0.85 0.86 0.86 0.86 0.87 0.90 0.91 0.90 0.90 0.92 0.94 0.93 0.91 0.91 0.91 0.88 0.84 0.81 0.76 0.72 0.69 0.66 0.60 0.56 0.55 0.56 0.57 0.54 0.52 0.53 0.57 0.60 0.59 0.58 0.57 0.56 0.56 0.58 0.56 0.56 0.54 0.54 0.53 0.52 0.54 0.52
0.34 0.34 0.35 0.34 0.33 0.34 0.34 0.35 0.35 0.36 0.37 0.38 0.38 0.39 0.40 0.40 0.40 0.42 0.43 0.43 0.45 0.45 0.43 0.44 0.43 0.45 0.48 0.51 0.53 0.50 0.48 0.48 0.48 0.48 0.55 0.69 0.81 0.84 0.85 0.84 0.84 0.84 0.84 0.84 0.85 0.88 0.89 0.89 0.90 0.91 0.91 0.87 0.85 0.84 0.80 0.75 0.71 0.66 0.64 0.66 0.66 0.65 0.62 0.61 0.62 0.61 0.59 0.57 0.57 0.57 0.60 0.56 0.54 0.52 0.54 0.56 0.55 0.53 0.57 0.61 0.57 0.55 0.53 0.49 0.47
0.34 0.34 0.34 0.33 0.33 0.32 0.33 0.34 0.35 0.36 0.37 0.38 0.39 0.39 0.39 0.39 0.39 0.40 0.42 0.43 0.43 0.43 0.43 0.42 0.43 0.46 0.47 0.48 0.51 0.52 0.49 0.47 0.47 0.47 0.48 0.60 0.75 0.80 0.82 0.82 0.81 0.81 0.81 0.81 0.82 0.81 0.82 0.84 0.84 0.84 0.82 0.84 0.82 0.78 0.76 0.75 0.71 0.68 0.65 0.63 0.64 0.65 0.65 0.64 0.63 0.61 0.59 0.57 0.56 0.55 0.54 0.58 0.58 0.49 0.51 0.56 0.52 0.53 0.57 0.63 0.53 0.51 0.48 0.45 0.46
0.33 0.33 0.33 0.33 0.32 0.33 0.33 0.34 0.35 0.35 0.37 0.38 0.39 0.39 0.39 0.38 0.39 0.40 0.41 0.41 0.42 0.43 0.42 0.43 0.44 0.45 0.45 0.47 0.48 0.51 0.51 0.48 0.46 0.46 0.45 0.50 0.66 0.77 0.79 0.79 0.78 0.79 0.79 0.79 0.79 0.78 0.78 0.78 0.78 0.77 0.75 0.74 0.76 0.79 0.78 0.72 0.72 0.70 0.68 0.66 0.67 0.68 0.66 0.63 0.61 0.59 0.57 0.56 0.56 0.55 0.58 0.59 0.59 0.58 0.58 0.59 0.56 0.50 0.53 0.49 0.44 0.47 0.45 0.49 0.52
0.33 0.32 0.32 0.32 0.32 0.33 0.34 0.34 0.34 0.35 0.36 0.37 0.39 0.38 0.37 0.38 0.39 0.40 0.41 0.41 0.42 0.43 0.44 0.44 0.43 0.43 0.45 0.45 0.46 0.47 0.48 0.48 0.46 0.45 0.43 0.43 0.55 0.70 0.76 0.78 0.77 0.76 0.77 0.78 0.77 0.77 0.78 0.78 0.76 0.75 0.74 0.71 0.70 0.68 0.69 0.72 0.75 0.71 0.72 0.73 0.73 0.70 0.66 0.65 0.64 0.63 0.61 0.59 0.55 0.55 0.53 0.52 0.52 0.50 0.49 0.49 0.49 0.52 0.58 0.57 0.49 0.50 0.54 0.56 0.59
0.32 0.32 0.31 0.32 0.32 0.33 0.34 0.34 0.33 0.34 0.35 0.37 0.37 0.37 0.36 0.37 0.38 0.39 0.40 0.41 0.41 0.42 0.42 0.43 0.42 0.42 0.41 0.43 0.44 0.44 0.44 0.47 0.49 0.47 0.44 0.41 0.46 0.60 0.70 0.75 0.76 0.75 0.74 0.75 0.77 0.78 0.77 0.78 0.80 0.78 0.75 0.73 0.71 0.70 0.68 0.67 0.68 0.72 0.75 0.79 0.78 0.73 0.68 0.63 0.60 0.59 0.58 0.55 0.54 0.53 0.51 0.51 0.53 0.51 0.52 0.54 0.60 0.63 0.58 0.54 0.50 0.51 0.55 0.56 0.68
0.32 0.31 0.31 0.32 0.33 0.33 0.33 0.32 0.32 0.33 0.35 0.37 0.36 0.35 0.35 0.36 0.37 0.38 0.40 0.41 0.41 0.41 0.41 0.41 0.40 0.40 0.41 0.42 0.43 0.43 0.42 0.44 0.47 0.48 0.47 0.41 0.40 0.49 0.59 0.68 0.72 0.73 0.74 0.73 0.74 0.75 0.76 0.77 0.79 0.80 0.79 0.78 0.77 0.75 0.74 0.71 0.69 0.68 0.68 0.71 0.73 0.76 0.77 0.70 0.66 0.63 0.59 0.58 0.61 0.59 0.56 0.52 0.54 0.57 0.56 0.53 0.53 0.51 0.54 0.54 0.51 0.49 0.48 0.48 0.55
0.31 0.31 0.32 0.32 0.32 0.32 0.33 0.32 0.32 0.33 0.35 0.35 0.35 0.34 0.33 0.34 0.36 0.38 0.40 0.40 0.41 0.42 0.40 0.40 0.41 0.41 0.42 0.42 0.42 0.43 0.43 0.43 0.44 0.46 0.48 0.46 0.41 0.42 0.50 0.59 0.66 0.69 0.71 0.74 0.76 0.77 0.78 0.79 0.81 0.83 0.83 0.84 0.84 0.83 0.82 0.80 0.76 0.72 0.69 0.67 0.68 0.70 0.71 0.73 0.73 0.66 0.60 0.53 0.52 0.51 0.50 0.46 0.46 0.48 0.52 0.57 0.59 0.55 0.56 0.54 0.51 0.47 0.49 0.50 0.56
0.31 0.31 0.31 0.31 0.31 0.32 0.32 0.31 0.32 0.33 0.35 0.35 0.35 0.32 0.32 0.33 0.35 0.37 0.39 0.40 0.41 0.40 0.40 0.40 0.40 0.41 0.41 0.41 0.41 0.42 0.41 0.42 0.43 0.43 0.45 0.47 0.46 0.42 0.43 0.48 0.56 0.61 0.65 0.68 0.72 0.76 0.77 0.78 0.80 0.84 0.86 0.88 0.87 0.88 0.89 0.90 0.89 0.83 0.77 0.72 0.68 0.66 0.66 0.67 0.67 0.66 0.61 0.53 0.47 0.43 0.42 0.42 0.38 0.40 0.46 0.59 0.67 0.56 0.57 0.52 0.50 0.50 0.48 0.49 0.56
0.31 0.31 0.31 0.30 0.31 0.32 0.31 0.32 0.32 0.34 0.35 0.35 0.33 0.32 0.31 0.32 0.35 0.37 0.39 0.40 0.40 0.39 0.39 0.39 0.40 0.40 0.40 0.41 0.41 0.40 0.39 0.40 0.42 0.43 0.43 0.45 0.47 0.48 0.45 0.43 0.46 0.53 0.57 0.61 0.63 0.67 0.72 0.74 0.75 0.77 0.82 0.86 0.87 0.89 0.91 0.93 0.95 0.89 0.81 0.75 0.71 0.69 0.69 0.69 0.65 0.60 0.56 0.52 0.46 0.40 0.40 0.41 0.38 0.39 0.43 0.56 0.60 0.52 0.54 0.47 0.51 0.50 0.52 0.50 0.60
0.31 0.32 0.30 0.30 0.30 0.31 0.31 0.32 0.32 0.34 0.35 0.34 0.33 0.30 0.31 0.32 0.34 0.36 0.38 0.38 0.38 0.38 0.38 0.37 0.38 0.39 0.40 0.40 0.40 0.38 0.38 0.39 0.41 0.43 0.43 0.44 0.45 0.48 0.49 0.46 0.43 0.44 0.49 0.54 0.57 0.59 0.63 0.67 0.71 0.73 0.76 0.79 0.83 0.84 0.86 0.89 0.92 0.89 0.85 0.82 0.77 0.71 0.66 0.63 0.64 0.63 0.58 0.52 0.45 0.40 0.39 0.40 0.40 0.41 0.45 0.53 0.59 0.56 0.51 0.51 0.54 0.58 0.62 0.67 0.68
0.31 0.31 0.29 0.29 0.29 0.31 0.31 0.32 0.33 0.34 0.34 0.34 0.32 0.30 0.30 0.31 0.33 0.36 0.37 0.38 0.39 0.39 0.39 0.39 0.37 0.37 0.38 0.38 0.38 0.37 0.37 0.38 0.40 0.42 0.43 0.45 0.46 0.46 0.47 0.46 0.44 0.43 0.43 0.47 0.50 0.52 0.54 0.56 0.59 0.64 0.68 0.71 0.76 0.81 0.83 0.86 0.88 0.90 0.87 0.85 0.81 0.76 0.69 0.63 0.59 0.57 0.53 0.50 0.48 0.45 0.43 0.42 0.41 0.41 0.42 0.46 0.53 0.60 0.63 0.59 0.54 0.56 0.62 0.59 0.52
0.29 0.29 0.28 0.28 0.29 0.30 0.31 0.32 0.32 0.33 0.33 0.32 0.30 0.29 0.29 0.31 0.33 0.35 0.35 0.36 0.36 0.37 0.37 0.37 0.37 0.36 0.36 0.36 0.36 0.36 0.35 0.36 0.38 0.41 0.43 0.44 0.45 0.45 0.45 0.45 0.44 0.42 0.42 0.44 0.46 0.48 0.50 0.52 0.53 0.56 0.60 0.62 0.65 0.67 0.71 0.77 0.77 0.78 0.83 0.85 0.84 0.82 0.80 0.75 0.66 0.58 0.54 0.54 0.54 0.52 0.50 0.47 0.42 0.39 0.37 0.37 0.42 0.46 0.45 0.42 0.36 0.44 0.40 0.47 0.51
0.29 0.29 0.28 0.28 0.29 0.31 0.32 0.32 0.32 0.32 0.32 0.31 0.30 0.29 0.30 0.31 0.32 0.34 0.34 0.35 0.35 0.35 0.36 0.36 0.36 0.36 0.35 0.34 0.34 0.35 0.35 0.35 0.36 0.39 0.41 0.43 0.44 0.44 0.43 0.43 0.42 0.42 0.41 0.42 0.43 0.45 0.47 0.49 0.52 0.53 0.54 0.57 0.63 0.66 0.69 0.73 0.70 0.71 0.71 0.71 0.71 0.75 0.81 0.84 0.80 0.74 0.64 0.61 0.59 0.57 0.53 0.50 0.47 0.41 0.35 0.30 0.28 0.30 0.31 0.28 0.33 0.41 0.38 0.41 0.46
0.28 0.28 0.28 0.28 0.29 0.31 0.32 0.32 0.31 0.32 0.32 0.32 0.31 0.28 0.28 0.30 0.32 0.33 0.34 0.34 0.34 0.34 0.34 0.33 0.33 0.34 0.35 0.35 0.33 0.33 0.34 0.33 0.34 0.36 0.39 0.41 0.43 0.44 0.43 0.42 0.41 0.40 0.40 0.40 0.41 0.41 0.42 0.44 0.46 0.49 0.52 0.54 0.58 0.62 0.65 0.68 0.66 0.68 0.70 0.67 0.61 0.66 0.74 0.79 0.78 0.73 0.71 0.65 0.61 0.60 0.55 0.52 0.49 0.45 0.41 0.38 0.33 0.32 0.35 0.35 0.35 0.37 0.40 0.44 0.43
0.28 0.28 0.29 0.29 0.30 0.31 0.31 0.31 0.32 0.32 0.32 0.31 0.30 0.29 0.29 0.30 0.31 0.31 0.32 0.33 0.32 0.32 0.32 0.31 0.30 0.31 0.32 0.32 0.32 0.32 0.31 0.32 0.32 0.33 0.35 0.37 0.40 0.42 0.43 0.41 0.39 0.40 0.41 0.40 0.40 0.41 0.40 0.40 0.41 0.43 0.46 0.51 0.52 0.54 0.58 0.62 0.63 0.65 0.65 0.60 0.58 0.59 0.69 0.75 0.75 0.72 0.68 0.65 0.61 0.58 0.54 0.52 0.48 0.45 0.43 0.41 0.40 0.38 0.38 0.38 0.38 0.41 0.49 0.56 0.53
0.29 0.29 0.29 0.29 0.29 0.30 0.30 0.31 0.31 0.32 0.32 0.31 0.30 0.29 0.29 0.29 0.30 0.29 0.29 0.30 0.31 0.30 0.30 0.29 0.29 0.28 0.29 0.30 0.31 0.31 0.31 0.31 0.31 0.30 0.31 0.33 0.35 0.36 0.38 0.39 0.39 0.40 0.40 0.40 0.41 0.41 0.41 0.41 0.41 0.42 0.43 0.45 0.48 0.50 0.51 0.54 0.58 0.60 0.60 0.59 0.59 0.60 0.63 0.66 0.71 0.70 0.67 0.63 0.59 0.54 0.50 0.48 0.46 0.44 0.42 0.41 0.42 0.43 0.42 0.41 0.42 0.46 0.53 0.59 0.58
0.29 0.29 0.29 0.29 0.30 0.30 0.30 0.31 0.32 0.32 0.32 0.31 0.29 0.28 0.28 0.29 0.29 0.29 0.28 0.27 0.27 0.27 0.27 0.27 0.26 0.26 0.27 0.27 0.28 0.30 0.31 0.30 0.30 0.30 0.29 0.30 0.31 0.32 0.33 0.35 0.36 0.39 0.39 0.40 0.41 0.41 0.42 0.43 0.42 0.42 0.44 0.46 0.48 0.50 0.53 0.53 0.54 0.56 0.57 0.59 0.61 0.61 0.60 0.63 0.63 0.64 0.65 0.64 0.61 0.55 0.50 0.45 0.42 0.42 0.42 0.41 0.42 0.45 0.46 0.48 0.50 0.57 0.64 0.67 0.63
0.30 0.29 0.29 0.29 0.30 0.30 0.31 0.32 0.31 0.31 0.31 0.30 0.29 0.27 0.28 0.28 0.29 0.29 0.28 0.26 0.26 0.24 0.24 0.24 0.23 0.23 0.23 0.24 0.25 0.27 0.29 0.29 0.28 0.29 0.28 0.28 0.29 0.31 0.32 0.33 0.34 0.36 0.35 0.35 0.37 0.39 0.42 0.43 0.44 0.44 0.44 0.44 0.46 0.49 0.52 0.54 0.55 0.55 0.57 0.59 0.60 0.61 0.63 0.62 0.57 0.57 0.61 0.63 0.61 0.55 0.51 0.47 0.42 0.41 0.42 0.40 0.43 0.47 0.49 0.52 0.58 0.66 0.74 0.79 0.78
0.31 0.30 0.29 0.30 0.31 0.31 0.32 0.32 0.32 0.32 0.31 0.30 0.29 0.28 0.28 0.28 0.27 0.27 0.27 0.26 0.25 0.24 0.23 0.22 0.21 0.20 0.20 0.20 0.21 0.23 0.25 0.27 0.27 0.27 0.27 0.27 0.28 0.29 0.29 0.30 0.31 0.32 0.34 0.33 0.35 0.36 0.37 0.39 0.40 0.43 0.44 0.45 0.45 0.45 0.47 0.49 0.50 0.52 0.55 0.58 0.59 0.60 0.60 0.58 0.56 0.55 0.56 0.58 0.58 0.54 0.51 0.49 0.46 0.43 0.44 0.44 0.44 0.47 0.50 0.52 0.57 0.67 0.74 0.78 0.77
0.32 0.30 0.29 0.30 0.32 0.32 0.33 0.33 0.33 0.32 0.32 0.32 0.29 0.29 0.29 0.28 0.26 0.26 0.26 0.26 0.25 0.24 0.22 0.22 0.21 0.20 0.20 0.19 0.18 0.18 0.20 0.22 0.23 0.24 0.25 0.25 0.26 0.27 0.28 0.28 0.29 0.30 0.32 0.33 0.33 0.34 0.35 0.37 0.38 0.40 0.42 0.43 0.44 0.45 0.46 0.46 0.47 0.48 0.49 0.50 0.52 0.52 0.54 0.55 0.54 0.53 0.49 0.49 0.52 0.54 0.53 0.51 0.49 0.48 0.50 0.49 0.47 0.47 0.52 0.54 0.57 0.65 0.75 0.79 0.77
0.34 0.32 0.31 0.32 0.32 0.33 0.32 0.32 0.32 0.31 0.31 0.30 0.30 0.30 0.30 0.28 0.26 0.26 0.26 0.25 0.25 0.24 0.23 0.22 0.21 0.21 0.20 0.19 0.18 0.17 0.17 0.17 0.17 0.18 0.20 0.21 0.23 0.24 0.26 0.26 0.27 0.28 0.30 0.32 0.32 0.33 0.34 0.35 0.37 0.38 0.39 0.40 0.43 0.44 0.44 0.45 0.46 0.47 0.48 0.49 0.50 0.50 0.50 0.52 0.54 0.53 0.50 0.48 0.49 0.52 0.54 0.53 0.51 0.52 0.52 0.51 0.45 0.40 0.46 0.51 0.51 0.53 0.63 0.69 0.71
0.36 0.35 0.34 0.34 0.34 0.33 0.32 0.31 0.30 0.31 0.31 0.31 0.31 0.31 0.31 0.29 0.28 0.28 0.27 0.26 0.25 0.25 0.24 0.24 0.23 0.21 0.20 0.18 0.18 0.17 0.16 0.16 0.15 0.15 0.15 0.16 0.18 0.19 0.22 0.24 0.24 0.25 0.26 0.29 0.30 0.31 0.32 0.32 0.33 0.35 0.36 0.37 0.38 0.40 0.41 0.44 0.46 0.46 0.46 0.47 0.47 0.47 0.48 0.48 0.49 0.51 0.53 0.51 0.50 0.51 0.54 0.55 0.55 0.53 0.50 0.48 0.44 0.40 0.43 0.48 0.51 0.49 0.52 0.58 0.63
0.38 0.38 0.37 0.36 0.35 0.34 0.31 0.29 0.30 0.31 0.32 0.31 0.31 0.31 0.30 0.29 0.27 0.26 0.27 0.29 0.28 0.25 0.25 0.24 0.23 0.22 0.20 0.19 0.18 0.17 0.16 0.15 0.14 0.14 0.14 0.14 0.14 0.15 0.15 0.17 0.19 0.20 0.20 0.22 0.25 0.26 0.27 0.28 0.29 0.31 0.33 0.34 0.34 0.35 0.36 0.38 0.40 0.42 0.42 0.44 0.45 0.47 0.48 0.49 0.50 0.51 0.53 0.55 0.53 0.52 0.52 0.54 0.51 0.51 0.50 0.48 0.46 0.43 0.42 0.44 0.47 0.51 0.49 0.49 0.52
0.39 0.40 0.39 0.37 0.36 0.33 0.31 0.32 0.32 0.32 0.31 0.31 0.33 0.36 0.36 0.30 0.25 0.24 0.25 0.27 0.30 0.30 0.27 0.25 0.23 0.22 0.21 0.21 0.19 0.17 0.16 0.15 0.15 0.16 0.15 0.14 0.13 0.13 0.12 0.12 0.14 0.15 0.16 0.17 0.20 0.20 0.20 0.21 0.21 0.22 0.24 0.25 0.27 0.28 0.30 0.31 0.33 0.36 0.38 0.39 0.40 0.42 0.44 0.45 0.45 0.48 0.50 0.52 0.52 0.50 0.48 0.50 0.51 0.51 0.50 0.48 0.46 0.44 0.43 0.41 0.42 0.46 0.49 0.49 0.48
0.40 0.41 0.40 0.38 0.36 0.34 0.33 0.33 0.32 0.31 0.29 0.26 0.27 0.29 0.31 0.32 0.31 0.26 0.24 0.24 0.25 0.26 0.28 0.27 0.26 0.23 0.20 0.20 0.20 0.18 0.17 0.17 0.17 0.16 0.15 0.14 0.13 0.12 0.12 0.12 0.12 0.13 0.13 0.14 0.15 0.14 0.14 0.14 0.15 0.16 0.17 0.19 0.20 0.22 0.24 0.27 0.29 0.32 0.34 0.36 0.37 0.37 0.40 0.42 0.44 0.47 0.49 0.50 0.53 0.53 0.49 0.48 0.49 0.49 0.49 0.48 0.47 0.46 0.45 0.42 0.39 0.40 0.41 0.41 0.42
0.41 0.42 0.41 0.40 0.38 0.36 0.36 0.34 0.33 0.32 0.30 0.28 0.27 0.28 0.28 0.29 0.27 0.26 0.26 0.25 0.25 0.25 0.25 0.25 0.25 0.25 0.22 0.19 0.18 0.19 0.19 0.18 0.17 0.17 0.16 0.14 0.14 0.13 0.12 0.12 0.12 0.12 0.12 0.13 0.12 0.11 0.10 0.10 0.11 0.12 0.13 0.14 0.15 0.17 0.19 0.21 0.23 0.26 0.28 0.31 0.33 0.35 0.37 0.40 0.42 0.44 0.46 0.48 0.51 0.54 0.54 0.50 0.49 0.49 0.48 0.47 0.47 0.46 0.44 0.44 0.42 0.39 0.37 0.38 0.38
0.41 0.42 0.42 0.41 0.39 0.39 0.38 0.36 0.34 0.33 0.31 0.30 0.29 0.29 0.29 0.28 0.28 0.28 0.27 0.26 0.26 0.26 0.25 0.25 0.26 0.25 0.25 0.24 0.23 0.20 0.19 0.18 0.18 0.17 0.16 0.15 0.14 0.13 0.13 0.12 0.12 0.12 0.12 0.12 0.11 0.10 0.10 0.10 0.10 0.10 0.11 0.11 0.12 0.13 0.15 0.16 0.18 0.20 0.22 0.24 0.27 0.31 0.33 0.35 0.39 0.41 0.44 0.46 0.48 0.50 0.53 0.53 0.51 0.50 0.49 0.48 0.47 0.46 0.44 0.42 0.41 0.39 0.38 0.36 0.36
0.43 0.42 0.43 0.41 0.40 0.40 0.40 0.38 0.36 0.34 0.32 0.30 0.29 0.30 0.30 0.29 0.28 0.27 0.27 0.27 0.27 0.27 0.26 0.25 0.25 0.25 0.24 0.22 0.22 0.21 0.20 0.19 0.18 0.18 0.17 0.16 0.16 0.15 0.14 0.12 0.12 0.12 0.12 0.11 0.10 0.10 0.10 0.10 0.10 0.10 0.10 0.11 0.11 0.11 0.11 0.12 0.14 0.16 0.17 0.18 0.20 0.24 0.28 0.33 0.36 0.37 0.39 0.41 0.44 0.47 0.50 0.53 0.55 0.53 0.52 0.50 0.48 0.46 0.45 0.43 0.42 0.41 0.40 0.37 0.36
0.45 0.44 0.43 0.42 0.41 0.41 0.41 0.39 0.38 0.36 0.33 0.31 0.30 0.31 0.31 0.31 0.30 0.29 0.27 0.27 0.27 0.28 0.28 0.27 0.26 0.25 0.25 0.24 0.23 0.22 0.21 0.20 0.20 0.19 0.18 0.18 0.17 0.17 0.16 0.15 0.12 0.12 0.11 0.11 0.11 0.10 0.10 0.10 0.10 0.10 0.10 0.11 0.11 0.11 0.11 0.11 0.11 0.13 0.14 0.15 0.16 0.18 0.21 0.25 0.29 0.32 0.34 0.37 0.40 0.43 0.47 0.50 0.54 0.54 0.54 0.52 0.51 0.48 0.47 0.45 0.44 0.40 0.39 0.38 0.37
0.47 0.46 0.44 0.43 0.44 0.43 0.43 0.42 0.40 0.38 0.36 0.33 0.31 0.31 0.32 0.32 0.31 0.31 0.31 0.30 0.29 0.28 0.27 0.28 0.29 0.29 0.26 0.25 0.24 0.23 0.23 0.22 0.21 0.21 0.20 0.19 0.18 0.18 0.18 0.16 0.13 0.12 0.12 0.11 0.11 0.10 0.10 0.11 0.11 0.11 0.11 0.11 0.11 0.11 0.11 0.11 0.11 0.11 0.12 0.12 0.12 0.14 0.15 0.17 0.20 0.24 0.28 0.31 0.34 0.38 0.43 0.47 0.50 0.53 0.55 0.54 0.51 0.48 0.47 0.46 0.45 0.43 0.40 0.39 0.39
0.48 0.47 0.45 0.44 0.45 0.45 0.45 0.44 0.43 0.41 0.38 0.36 0.33 0.32 0.32 0.32 0.33 0.34 0.35 0.34 0.32 0.30 0.29 0.29 0.28 0.28 0.27 0.26 0.25 0.24 0.23 0.23 0.22 0.21 0.21 0.20 0.19 0.19 0.17 0.15 0.13 0.12 0.11 0.11 0.11 0.11 0.11 0.11 0.11 0.11 0.11 0.11 0.11 0.11 0.11 0.11 0.11 0.11 0.12 0.12 0.11 0.11 0.12 0.12 0.15 0.17 0.20 0.23 0.27 0.32 0.37 0.41 0.45 0.48 0.51 0.55 0.55 0.53 0.49 0.48 0.47 0.45 0.43 0.41 0.40
0.47 0.47 0.45 0.45 0.46 0.47 0.47 0.46 0.45 0.43 0.41 0.38 0.35 0.32 0.31 0.32 0.34 0.34 0.34 0.35 0.34 0.33 0.31 0.29 0.29 0.28 0.28 0.27 0.26 0.25 0.24 0.24 0.23 0.23 0.22 0.21 0.20 0.19 0.17 0.16 0.15 0.13 0.12 0.12 0.12 0.11 0.11 0.11 0.11 0.11 0.11 0.11 0.11 0.11 0.11 0.11 0.11 0.11 0.11 0.12 0.11 0.11 0.12 0.12 0.12 0.13 0.14 0.16 0.19 0.24 0.29 0.34 0.39 0.43 0.45 0.48 0.52 0.56 0.55 0.52 0.50 0.47 0.46 0.43 0.42
0.48 0.48 0.46 0.45 0.46 0.47 0.47 0.46 0.46 0.43 0.41 0.39 0.37 0.34 0.32 0.32 0.33 0.34 0.35 0.35 0.34 0.33 0.32 0.31 0.30 0.29 0.28 0.28 0.28 0.27 0.26 0.26 0.25 0.24 0.24 0.23 0.22 0.20 0.19 0.17 0.16 0.15 0.14 0.13 0.13 0.12 0.12 0.12 0.12 0.12 0.12 0.12 0.11 0.11 0.11 0.11 0.11 0.11 0.11 0.11 0.11 0.11 0.11 0.11 0.12 0.12 0.13 0.13 0.13 0.16 0.20 0.24 0.30 0.36 0.40 0.43 0.46 0.50 0.55 0.56 0.54 0.50 0.48 0.46 0.44
0.48 0.48 0.47 0.44 0.46 0.47 0.47 0.46 0.44 0.43 0.42 0.40 0.38 0.36 0.34 0.33 0.34 0.35 0.35 0.34 0.33 0.33 0.31 0.29 0.29 0.29 0.29 0.29 0.30 0.29 0.30 0.27 0.25 0.24 0.23 0.23 0.22 0.21 0.20 0.19 0.18 0.17 0.16 0.15 0.14 0.13 0.13 0.12 0.12 0.12 0.12 0.12 0.12 0.11 0.11 0.11 0.11 0.11 0.11 0.10 0.10 0.11 0.10 0.11 0.11 0.11 0.11 0.12 0.12 0.13 0.15 0.17 0.22 0.27 0.32 0.36 0.39 0.43 0.47 0.53 0.55 0.54 0.52 0.49 0.47
0.50 0.48 0.46 0.43 0.44 0.46 0.46 0.46 0.43 0.43 0.42 0.40 0.39 0.38 0.36 0.34 0.34 0.35 0.35 0.34 0.33 0.32 0.31 0.30 0.29 0.29 0.30 0.31 0.31 0.32 0.30 0.27 0.26 0.25 0.24 0.23 0.23 0.23 0.22 0.20 0.19 0.18 0.17 0.16 0.15 0.14 0.13 0.13 0.13 0.12 0.12 0.12 0.12 0.12 0.11 0.12 0.12 0.11 0.11 0.10 0.10 0.10 0.10 0.10 0.11 0.11 0.11 0.12 0.11 0.12 0.13 0.15 0.17 0.19 0.22 0.27 0.31 0.35 0.38 0.43 0.48 0.54 0.55 0.53 0.52
0.54 0.52 0.47 0.44 0.44 0.44 0.45 0.44 0.43 0.43 0.43 0.43 0.42 0.40 0.37 0.36 0.36 0.36 0.35 0.34 0.34 0.32 0.32 0.31 0.31 0.31 0.30 0.31 0.31 0.32 0.32 0.30 0.29 0.27 0.26 0.24 0.24 0.23 0.22 0.22 0.21 0.20 0.19 0.18 0.17 0.16 0.15 0.14 0.13 0.13 0.12 0.12 0.12 0.12 0.12 0.12 0.12 0.11 0.11 0.10 0.10 0.10 0.10 0.11 0.11 0.11 0.12 0.12 0.11 0.11 0.12 0.13 0.15 0.16 0.16 0.20 0.24 0.28 0.32 0.36 0.40 0.45 0.51 0.54 0.54
0.58 0.58 0.51 0.48 0.46 0.44 0.44 0.43 0.43 0.43 0.44 0.44 0.44 0.42 0.39 0.37 0.37 0.36 0.35 0.35 0.34 0.33 0.32 0.32 0.32 0.31 0.30 0.28 0.28 0.30 0.32 0.31 0.30 0.29 0.28 0.27 0.25 0.24 0.24 0.23 0.23 0.22 0.21 0.20 0.19 0.18 0.16 0.15 0.14 0.14 0.13 0.12 0.12 0.12 0.11 0.11 0.11 0.11 0.11 0.10 0.10 0.10 0.10 0.10 0.11 0.11 0.12 0.12 0.11 0.12 0.12 0.13 0.14 0.15 0.15 0.17 0.19 0.21 0.24 0.28 0.32 0.37 0.41 0.47 0.53
0.63 0.63 0.57 0.53 0.49 0.46 0.44 0.43 0.44 0.43 0.43 0.43 0.43 0.42 0.39 0.37 0.37 0.36 0.35 0.35 0.34 0.34 0.33 0.32 0.31 0.31 0.28 0.26 0.27 0.28 0.30 0.30 0.30 0.30 0.29 0.28 0.27 0.26 0.26 0.25 0.24 0.24 0.23 0.22 0.21 0.20 0.18 0.16 0.15 0.15 0.14 0.13 0.13 0.12 0.11 0.11 0.11 0.11 0.11 0.10 0.10 0.10 0.09 0.10 0.10 0.11 0.11 0.12 0.12 0.12 0.12 0.13 0.14 0.13 0.14 0.16 0.18 0.18 0.19 0.21 0.24 0.28 0.33 0.38 0.43
0.64 0.64 0.60 0.57 0.55 0.52 0.49 0.46 0.45 0.44 0.43 0.43 0.44 0.42 0.39 0.37 0.38 0.37 0.35 0.34 0.34 0.34 0.33 0.33 0.32 0.30 0.28 0.26 0.27 0.29 0.31 0.31 0.31 0.31 0.31 0.30 0.29 0.28 0.27 0.26 0.26 0.26 0.25 0.24 0.23 0.22 0.19 0.17 0.16 0.16 0.16 0.14 0.14 0.14 0.12 0.12 0.12 0.12 0.11 0.11 0.10 0.10 0.09 0.09 0.10 0.11 0.12 0.12 0.12 0.12 0.12 0.13 0.14 0.13 0.12 0.15 0.16 0.16 0.17 0.18 0.19 0.20 0.24 0.29 0.34
0.65 0.62 0.59 0.57 0.56 0.55 0.53 0.50 0.47 0.45 0.45 0.44 0.43 0.41 0.39 0.39 0.40 0.38 0.35 0.34 0.34 0.34 0.34 0.34 0.33 0.31 0.29 0.27 0.27 0.30 0.32 0.32 0.32 0.32 0.32 0.32 0.31 0.30 0.29 0.28 0.28 0.27 0.26 0.25 0.24 0.23 0.20 0.18 0.17 0.17 0.16 0.15 0.15 0.14 0.13 0.13 0.13 0.12 0.12 0.11 0.10 0.10 0.10 0.10 0.10 0.12 0.13 0.13 0.12 0.13 0.13 0.13 0.13 0.12 0.11 0.14 0.15 0.15 0.17 0.17 0.17 0.18 0.19 0.21 0.25
0.62 0.60 0.58 0.56 0.56 0.56 0.55 0.53 0.49 0.47 0.45 0.44 0.43 0.41 0.40 0.41 0.42 0.40 0.37 0.35 0.35 0.35 0.36 0.35 0.34 0.32 0.29 0.29 0.30 0.32 0.33 0.33 0.33 0.34 0.33 0.33 0.32 0.31 0.30 0.29 0.28 0.28 0.27 0.26 0.25 0.24 0.21 0.19 0.18 0.17 0.16 0.16 0.15 0.14 0.14 0.14 0.14 0.13 0.13 0.12 0.11 0.11 0.11 0.10 0.11 0.12 0.13 0.12 0.12 0.13 0.14 0.14 0.13 0.12 0.11 0.14 0.15 0.14 0.16 0.17 0.17 0.18 0.18 0.19 0.20
0.64 0.62 0.60 0.58 0.57 0.57 0.56 0.56 0.52 0.49 0.47 0.46 0.44 0.43 0.43 0.42 0.42 0.40 0.37 0.36 0.36 0.36 0.37 0.36 0.34 0.31 0.30 0.30 0.31 0.32 0.34 0.33 0.33 0.33 0.34 0.34 0.33 0.32 0.30 0.29 0.29 0.28 0.27 0.27 0.27 0.25 0.22 0.20 0.19 0.18 0.16 0.16 0.16 0.15 0.14 0.13 0.13 0.13 0.13 0.12 0.11 0.11 0.10 0.10 0.11 0.12 0.12 0.12 0.13 0.14 0.15 0.15 0.13 0.13 0.12 0.13 0.14 0.14 0.14 0.16 0.16 0.17 0.17 0.18 0.19
0.67 0.64 0.62 0.60 0.59 0.58 0.58 0.58 0.55 0.52 0.50 0.48 0.47 0.46 0.44 0.42 0.40 0.38 0.35 0.35 0.36 0.37 0.38 0.36 0.33 0.32 0.31 0.31 0.32 0.33 0.33 0.34 0.34 0.34 0.34 0.34 0.33 0.32 0.31 0.29 0.28 0.28 0.27 0.27 0.27 0.25 0.22 0.21 0.20 0.19 0.18 0.17 0.16 0.15 0.14 0.14 0.14 0.13 0.13 0.12 0.11 0.11 0.11 0.11 0.11 0.12 0.12 0.12 0.14 0.15 0.15 0.14 0.13 0.13 0.12 0.12 0.13 0.13 0.13 0.14 0.15 0.16 0.17 0.17 0.18
0.69 0.66 0.65 0.63 0.61 0.61 0.59 0.59 0.58 0.54 0.51 0.49 0.48 0.46 0.43 0.40 0.39 0.37 0.36 0.35 0.35 0.37 0.37 0.35 0.34 0.33 0.32 0.32 0.33 0.33 0.34 0.34 0.34 0.33 0.33 0.33 0.33 0.33 0.32 0.31 0.29 0.28 0.28 0.28 0.27 0.26 0.24 0.22 0.21 0.20 0.19 0.17 0.17 0.16 0.15 0.14 0.13 0.13 0.13 0.12 0.11 0.11 0.11 0.11 0.11 0.12 0.12 0.12 0.14 0.16 0.15 0.14 0.14 0.13 0.11 0.11 0.12 0.13 0.12 0.14 0.15 0.16 0.17 0.17 0.17
0.72 0.71 0.70 0.69 0.65 0.64 0.64 0.62 0.57 0.53 0.51 0.49 0.47 0.45 0.43 0.41 0.39 0.37 0.36 0.37 0.37 0.37 0.37 0.36 0.35 0.35 0.34 0.34 0.34 0.34 0.34 0.34 0.34 0.34 0.33 0.33 0.33 0.34 0.33 0.32 0.31 0.29 0.29 0.28 0.28 0.27 0.25 0.24 0.22 0.20 0.19 0.18 0.17 0.16 0.15 0.14 0.13 0.13 0.12 0.12 0.12 0.12 0.11 0.11 0.11 0.12 0.12 0.12 0.14 0.15 0.15 0.14 0.14 0.13 0.11 0.10 0.11 0.12 0.12 0.12 0.14 0.15 0.16 0.16 0.16
0.76 0.77 0.75 0.72 0.70 0.68 0.64 0.59 0.55 0.53 0.50 0.48 0.46 0.43 0.40 0.39 0.38 0.38 0.39 0.39 0.39 0.39 0.38 0.36 0.36 0.36 0.35 0.35 0.35 0.35 0.35 0.35 0.35 0.35 0.34 0.33 0.34 0.34 0.34 0.34 0.32 0.31 0.30 0.29 0.29 0.28 0.26 0.24 0.22 0.20 0.19 0.18 0.17 0.17 0.16 0.15 0.13 0.12 0.12 0.12 0.12 0.12 0.12 0.11 0.11 0.11 0.12 0.13 0.15 0.15 0.14 0.14 0.13 0.12 0.11 0.09 0.10 0.11 0.11 0.12 0.13 0.14 0.15 0.15 0.16
Wind_Speed
17 18 19 20 21 22 23 24 24 25 25 26 26 27 27 28 28 29 28 28 28 29 29 29 29 29 29 30 31 32 33 33 32 31 30 31 32 32 32 33 34 34 33 32 31 28 26 24 23 23 20 18 18 19 19 20 22 24 23 21 20 18 18 19 19 19 18 17 16 15 13 12 11 10 8 7 6 4 4 3 4 4 4 6 8
16 17 18 20 21 22 23 24 24 25 25 26 27 27 28 28 28 29 29 28 28 28 28 28 28 28 28 29 31 32 32 32 31 31 30 31 32 31 31 31 32 33 34 34 34 32 29 27 25 24 22 21 21 22 22 23 24 24 22 20 18 18 19 20 20 19 17 16 16 14 13 12 11 9 8 7 5 4 4 4 4 5 5 6 8
16 17 18 19 21 22 23 24 24 25 26 26 27 27 28 28 29 29 29 29 28 28 28 27 27 27 28 29 30 31 32 31 31 30 30 30 31 31 30 30 30 31 32 33 33 33 32 31 29 28 27 26 26 25 24 24 23 22 21 19 19 19 20 20 20 19 17 16 14 13 11 11 10 8 7 6 5 5 5 5 5 5 6 7 9
15 17 18 19 20 22 23 23 24 25 26 26 27 28 28 28 28 29 29 29 28 28 28 27 27 26 27 28 29 30 31 31 30 30 29 29 29 30 30 30 29 29 30 30 31 31 31 31 30 29 28 28 27 26 25 24 23 22 21 20 20 21 20 20 18 17 16 15 13 12 10 9 9 8 7 6 6 5 5 5 5 6 7 9 10
15 16 17 19 20 22 22 23 24 25 26 26 27 28 28 28 28 29 29 29 28 28 27 27 26 26 26 27 28 29 30 31 30 30 29 28 28 28 29 30 29 28 28 28 29 29 29 29 29 27 27 26 26 25 24 23 22 21 21 21 20 19 19 18 17 16 15 14 12 11 10 9 9 7 6 6 6 5 5 5 6 7 8 9 10
15 16 17 18 20 21 22 23 24 25 25 26 27 28 28 28 28 28 28 29 28 28 27 26 25 25 25 26 27 28 29 30 30 30 29 28 27 27 27 28 28 28 27 27 27 27 28 28 27 26 25 25 24 24 23 22 22 21 21 21 20 19 18 17 16 15 14 13 11 11 10 9 8 7 7 6 5 5 5 6 7 8 8 10 11
14 16 17 18 20 21 22 23 23 24 25 26 27 27 28 28 28 28 28 28 28 28 27 26 25 24 24 25 26 27 28 29 29 29 28 27 27 26 26 26 27 27 27 26 26 26 26 26 26 25 24 23 22 22 21 21 20 20 20 20 19 17 17 16 15 14 13 12 11 11 10 8 7 6 6 6 5 5 5 5 7 8 9 11 12
14 15 16 18 19 20 21 22 23 24 25 25 26 27 27 28 28 28 28 28 28 28 27 26 25 24 24 24 25 26 27 28 28 29 28 27 26 26 26 25 26 26 26 26 25 24 24 25 25 24 24 23 21 20 20 19 19 19 18 17 16 15 15 14 13 13 12 12 11 10 9 8 7 6 6 5 6 6 6 6 7 8 9 11 13
14 15 16 17 19 20 21 22 23 24 24 25 26 26 27 27 27 27 27 28 28 28 27 26 25 24 24 24 24 25 26 26 27 28 28 27 26 26 25 25 24 24 24 25 25 25 23 23 23 23 23 23 22 21 19 18 18 17 16 15 14 14 14 13 12 12 11 11 10 9 9 8 7 7 6 6 6 6 6 7 8 9 9 11 12
13 14 16 17 18 19 20 21 22 23 24 25 25 25 26 26 27 27 27 28 28 28 27 26 25 24 23 23 23 24 24 25 26 27 27 26 26 25 25 25 24 24 23 23 23 24 23 22 21 21 21 21 21 20 19 18 17 16 15 14 14 13 13 13 12 11 11 10 9 8 8 8 7 7 6 6 6 6 6 7 8 9 10 10 11
13 14 15 16 18 19 20 21 22 23 23 24 24 25 25 26 26 26 27 27 27 27 27 26 25 24 23 23 23 23 24 25 25 26 26 25 25 24 24 24 24 24 23 22 21 22 23 22 20 19 18 18 18 18 18 17 17 16 15 15 14 13 12 12 11 11 10 9 9 8 8 7 7 7 6 6 6 6 7 8 8 10 11 11 11
12 13 15 16 17 18 19 20 21 22 23 23 23 24 25 25 25 26 26 27 27 27 27 26 25 24 23 23 23 22 23 24 25 24 25 24 24 24 23 23 23 23 23 22 21 21 21 21 20 18 16 16 15 15 15 15 15 15 15 14 14 13 12 12 11 10 9 9 8 8 7 7 7 7 6 6 5 6 6 7 8 10 11 12 12
12 13 14 15 17 18 19 20 21 21 22 22 23 23 24 24 25 25 25 26 26 26 26 26 25 24 23 22 22 22 23 24 24 23 23 24 23 23 23 23 23 22 22 22 21 20 19 19 19 18 17 15 14 13 12 13 13 13 13 14 14 13 12 12 11 10 9 8 8 7 7 6 6 6 6 6 6 6 6 7 8 9 11 11 11
11 12 14 15 16 17 18 19 20 21 21 21 22 23 23 24 24 24 25 25 25 25 26 26 25 25 24 23 22 22 23 23 23 23 23 23 23 22 22 22 22 22 22 22 21 20 18 18 18 18 17 16 14 13 11 11 11 12 12 13 13 12 11 11 10 10 9 8 8 8 8 7 7 7 6 6 6 6 7 7 8 9 9 10 11
11 12 13 14 15 16 18 18 19 20 20 20 21 22 22 23 23 24 24 24 24 24 25 25 25 25 24 23 22 22 22 23 23 22 22 22 22 21 21 22 22 22 22 21 21 20 19 17 17 17 17 16 16 14 12 10 9 9 10 11 11 11 10 9 9 8 8 8 8 8 8 8 9 8 7 6 6 6 6 6 7 7 7 9 10
10 11 12 14 15 16 17 18 18 19 19 20 20 21 22 22 23 23 23 23 23 23 24 24 25 25 24 23 22 22 22 23 22 22 22 21 21 21 21 22 22 22 21 21 21 20 19 18 17 16 16 16 15 14 12 10 8 7 7 7 7 8 8 8 8 8 7 8 8 8 8 8 9 10 9 7 6 6 5 6 7 7 7 8 9
10 11 12 13 14 15 16 17 18 18 18 19 19 20 21 21 22 22 23 23 23 23 23 23 24 24 24 23 22 21 22 23 23 22 22 21 20 20 20 21 21 22 22 21 21 20 20 19 18 16 16 15 14 14 13 11 10 8 7 5 5 5 5 6 6 6 6 7 6 6 7 7 8 9 10 9 8 7 6 6 8 8 8 8 9
9 10 11 12 14 15 15 16 17 17 18 18 18 19 20 20 21 22 22 22 22 22 22 23 23 23 23 23 23 21 21 22 23 22 22 21 20 19 19 20 21 21 22 22 21 20 20 20 19 17 16 15 14 13 12 12 11 10 9 6 5 4 4 4 4 4 4 4 4 5 5 6 7 8 9 9 9 8 7 7 7 8 8 9 8
9 10 11 12 13 14 15 16 16 17 17 17 17 18 19 19 20 21 21 21 21 22 22 22 22 22 22 22 23 22 21 21 23 22 22 21 20 19 19 19 20 21 21 22 22 21 20 20 20 19 18 16 15 13 12 11 11 10 10 8 7 5 5 4 4 4 3 3 3 3 4 5 6 7 8 9 9 9 8 7 7 8 8 9 9
8 9 10 11 12 13 14 15 16 16 16 16 17 17 18 18 19 20 20 20 21 21 21 22 22 22 22 22 22 22 21 21 22 22 22 21 21 20 19 19 19 20 21 21 22 22 21 20 20 20 19 18 16 15 13 12 11 11 10 10 9 7 6 5 4 4 4 3 3 3 3 3 5 6 6 7 8 8 8 8 7 8 8 9 9
8 9 10 11 12 13 14 14 15 15 15 15 16 17 17 18 18 19 19 19 20 20 21 21 21 22 22 22 21 21 21 21 21 22 22 21 21 20 19 19 19 19 20 20 21 21 21 20 20 20 19 19 18 17 15 14 13 12 12 11 10 8 7 5 4 4 4 3 3 3 3 3 3 4 5 6 7 7 8 8 8 8 8 8 9
7 8 9 10 11 12 13 14 14 14 14 15 15 16 16 17 18 18 18 19 20 20 21 21 21 21 21 22 21 21 21 21 21 21 21 21 20 20 19 19 19 19 19 20 20 20 20 20 20 20 19 18 18 18 17 16 15 14 13 12 10 10 9 7 5 4 4 3 3 3 3 3 3 3 4 4 5 6 6 7 7 7 8 8 9
7 8 9 10 11 12 13 13 13 13 13 14 15 15 16 16 17 17 18 18 19 20 20 20 21 21 21 21 21 20 20 20 20 20 20 20 20 19 19 19 19 19 19 19 19 19 19 19 20 20 19 18 18 19 18 18 17 16 14 13 11 11 10 8 6 5 4 4 4 3 3 3 2 2 3 3 4 4 5 6 7 7 7 8 8
7 8 8 9 10 11 12 12 12 12 13 14 14 15 15 16 16 17 17 18 19 19 20 20 20 20 20 20 20 20 19 19 19 19 19 18 18 18 18 19 19 19 18 19 19 18 18 18 18 19 19 18 18 18 19 19 18 17 16 14 13 12 11 10 8 6 5 4 4 3 3 3 2 2 2 2 3 3 3 5 6 6 6 7 8
7 7 8 9 10 10 10 11 11 12 12 13 14 14 15 15 16 16 17 17 18 19 19 19 20 20 20 20 20 19 19 18 18 18 18 17 17 17 17 17 17 17 17 18 19 18 18 18 18 18 18 18 18 18 18 19 19 18 18 17 15 14 12 11 10 8 6 5 4 4 4 4 3 2 2 1 1 2 3 4 4 5 5 6 7
7 7 8 9 9 9 9 10 11 11 12 13 13 14 15 15 15 16 16 17 17 18 18 19 19 19 19 19 19 19 19 18 17 17 17 16 16 15 15 15 16 16 16 17 17 18 18 19 18 18 19 18 18 18 18 18 19 19 19 19 18 16 14 13 12 10 8 6 5 4 3 3 3 3 2 1 0 1 2 2 3 4 5 5 5
7 8 8 8 8 8 9 9 10 11 11 12 13 13 14 15 15 15 15 16 16 17 17 18 18 18 18 18 18 18 18 18 17 17 17 16 15 14 14 14 14 15 15 16 17 17 18 18 19 19 19 19 19 18 18 18 18 19 19 19 18 18 17 15 13 11 9 7 5 4 3 3 3 3 2 1 1 0 1 1 2 3 4 5 5
7 7 8 8 7 8 8 9 10 10 11 12 12 13 14 15 15 15 15 15 15 16 16 17 18 18 18 17 17 17 17 17 17 17 16 16 15 14 14 14 14 14 14 15 16 16 17 17 18 19 19 19 19 19 19 19 19 19 19 18 18 18 18 17 15 13 11 8 6 4 3 2 2 2 2 2 2 1 0 1 2 2 3 4 5
7 7 7 7 7 7 8 9 9 10 10 11 12 13 14 14 14 14 15 15 15 15 15 16 16 17 17 17 17 16 16 16 16 16 16 15 15 14 14 13 13 14 14 15 15 16 16 17 18 19 19 19 19 19 20 20 19 19 19 19 19 19 18 18 17 16 14 10 7 5 3 2 1 2 2 2 2 2 1 1 1 1 2 3 4
7 7 7 7 7 7 8 8 9 9 10 10 11 12 13 14 14 14 14 14 15 15 15 15 16 16 16 16 16 16 15 15 15 15 15 15 14 14 14 14 14 14 14 14 14 15 16 17 18 18 19 19 20 20 20 20 20 20 21 21 20 20 20 19 18 18 16 14 10 7 4 3 2 1 1 2 2 3 2 1 1 1 1 1 2
7 7 7 7 7 7 8 8 8 9 9 10 10 11 12 13 14 14 14 14 14 14 15 15 15 15 15 15 15 15 15 15 15 15 14 14 14 14 14 14 14 14 14 14 14 15 15 16 17 18 19 19 20 20 20 20 21 21 21 21 21 21 21 20 20 19 18 16 14 10 7 3 2 1 1 1 2 3 3 2 2 1 1 1 1
7 7 7 7 7 7 8 8 8 8 9 9 10 11 11 12 13 13 13 13 13 14 14 14 15 15 15 14 14 14 14 14 14 14 14 13 13 13 14 14 14 14 14 14 14 15 15 16 16 17 18 19 19 20 20 20 21 21 21 22 22 21 21 21 21 20 19 18 16 13 10 6 2 1 1 1 1 2 3 3 2 2 1 1 1
8 7 7 7 7 7 8 8 8 9 9 9 10 10 11 11 12 12 12 12 12 13 13 13 14 14 14 14 14 13 14 14 14 13 13 13 13 13 13 13 14 14 14 13 14 14 15 15 16 16 17 18 18 19 19 20 20 20 21 22 22 22 21 21 21 21 20 19 17 16 13 9 5 2 2 1 1 2 2 2 2 3 3 2 1
8 8 7 7 7 7 8 8 9 9 9 10 10 10 11 11 11 11 11 11 11 12 12 12 13 13 13 13 13 13 13 13 13 13 13 13 12 12 12 12 13 14 14 13 13 14 14 15 15 15 16 17 17 18 19 19 19 20 20 21 21 21 21 21 21 21 21 20 18 17 16 13 9 4 2 2 2 2 2 2 2 3 3 3 3
8 8 8 8 8 8 8 9 9 10 10 10 10 11 11 11 11 11 11 11 11 11 11 12 12 13 13 13 12 12 12 12 12 12 12 12 12 12 11 11 11 12 13 13 13 13 14 14 14 15 15 16 16 17 18 18 19 19 19 20 21 21 21 21 21 21 21 21 20 18 17 16 13 9 4 3 3 3 3 3 3 3 3 4 4
9 9 8 9 9 9 9 9 10 10 10 10 11 11 11 11 11 11 11 11 11 11 11 11 12 12 12 12 12 11 11 11 12 12 12 12 12 12 11 11 11 11 12 12 12 12 13 13 14 14 14 15 15 16 17 17 18 18 19 19 20 20 21 21 21 21 20 20 20 20 18 17 16 13 9 5 3 4 4 4 4 4 4 4 5
10 9 9 10 10 10 10 10 10 10 10 11 11 11 11 11 11 11 11 11 11 11 11 11 11 11 12 12 11 11 10 10 11 11 11 12 12 11 11 11 11 11 11 11 11 12 12 13 13 13 14 14 14 15 16 16 17 18 18 19 19 19 20 20 20 20 20 20 20 20 19 18 17 15 13 10 5 4 4 5 5 6 6 5 5
11 11 10 10 10 11 11 11 11 11 11 11 11 12 12 12 11 11 11 11 11 11 11 12 12 12 12 11 11 10 10 10 10 10 11 11 11 11 11 11 11 11 11 11 11 11 11 12 12 13 13 13 13 14 15 15 16 17 17 18 18 19 19 19 19 20 19 19 19 19 19 18 18 17 15 13 10 6 4 5 6 6 7 7 7
12 12 11 11 11 12 12 12 12 12 12 12 12 12 12 12 12 11 11 11 11 12 12 12 12 12 12 11 11 11 11 10 10 10 10 10 10 10 10 10 10 10 10 10 11 11 11 11 12 12 12 12 13 13 14 15 15 16 17 17 18 18 19 19 19 19 19 19 19 19 18 18 18 17 16 15 13 10 7 5 6 7 7 8 8
14 14 13 12 13 13 13 14 14 13 13 13 13 13 13 13 13 12 12 12 12 12 12 13 13 12 11 11 11 11 11 10 10 10 10 9 9 9 10 10 10 10 10 10 10 10 10 10 11 11 12 12 12 13 13 14 14 15 16 17 17 17 18 18 18 18 18 18 18 18 18 18 17 17 17 16 15 13 11 8 6 7 8 8 9
15 15 14 14 14 15 15 15 15 15 15 15 14 14 14 13 13 13 13 13 13 13 13 13 13 12 11 11 11 11 11 10 10 10 10 9 9 9 9 9 10 10 10 10 10 10 10 10 11 11 11 12 12 12 13 13 14 14 15 16 16 17 17 17 18 18 18 18 18 18 18 18 17 17 17 16 15 15 13 11 8 7 7 8 9
16 16 16 16 16 16 16 17 16 16 16 16 16 15 15 15 15 14 14 14 14 14 13 13 13 12 11 11 11 12 12 11 11 10 10 10 10 9 9 9 9 9 10 10 10 10 10 10 10 11 11 11 11 12 12 13 13 14 15 15 16 16 16 17 17 17 17 17 18 18 18 18 17 17 17 16 15 15 14 14 12 9 7 8 9
17 18 18 18 18 18 18 18 18 18 18 18 17 17 16 16 16 15 15 15 15 14 14 14 13 12 12 11 12 12 12 11 11 11 11 11 10 10 10 10 10 10 10 10 10 10 10 10 10 11 11 11 11 11 12 12 13 14 14 15 15 16 16 16 17 17 17 17 17 18 18 17 17 17 17 17 16 15 15 14 13 12 10 8 8
20 20 20 19 19 19 19 19 19 19 19 19 18 18 17 17 17 16 16 16 15 15 15 14 13 12 12 12 13 13 12 12 11 11 11 11 11 10 10 10 10 10 10 10 10 10 10 10 10 10 10 11 11 11 11 12 13 13 14 15 15 15 16 16 17 17 17 17 17 17 17 17 17 17 17 17 16 16 15 14 14 13 13 11 9
22 22 21 21 21 21 21 20 20 20 20 20 20 19 19 18 18 17 17 17 16 16 15 15 14 13 13 13 13 13 12 12 12 11 11 10 10 10 10 10 10 10 10 10 10 10 10 10 11 10 10 10 10 10 10 11 12 13 13 14 15 15 16 16 17 17 17 18 17 17 17 17 17 17 17 17 17 16 16 15 15 14 13 13 12
23 23 23 23 23 22 22 22 21 21 21 21 21 20 20 19 19 18 18 18 17 17 16 15 14 14 14 14 14 13 12 12 12 12 11 11 11 11 11 11 11 11 11 10 10 11 11 11 11 11 11 10 10 10 10 11 11 12 13 14 15 15 16 16 17 17 17 17 17 17 17 17 17 17 17 17 17 17 16 16 15 15 14 14 13
24 24 24 24 24 23 23 23 22 22 22 21 21 20 20 19 19 19 19 19 18 17 17 16 16 15 15 15 14 13 13 12 12 12 12 12 12 12 12 12 12 12 12 12 11 11 11 11 11 11 11 10 10 10 10 10 11 12 12 13 14 15 16 16 17 17 17 17 17 17 17 17 17 17 17 17 17 17 17 16 16 15 15 14 14
24 24 24 25 25 25 24 24 23 22 22 21 21 20 20 20 20 20 20 19 19 18 18 17 17 17 16 15 15 14 14 13 12 12 12 12 12 13 13 13 13 13 12 12 12 12 12 12 12 11 11 10 9 9 10 10 11 11 12 13 14 15 15 16 17 17 17 17 17 17 17 17 17 17 17 17 17 17 17 17 16 16 15 15 15
24 25 25 25 25 25 25 24 23 23 22 22 22 22 22 21 21 21 20 19 19 18 18 18 18 17 16 16 15 15 14 14 13 13 13 13 13 13 13 13 13 12 12 12 12 12 12 12 12 12 11 10 9 9 10 10 10 11 11 12 13 14 15 16 16 17 17 17 17 17 17 17 17 17 17 17 17 17 17 17 17 16 16 16 15
25 25 25 25 25 25 25 25 24 24 24 24 23 23 22 22 21 21 21 20 20 19 19 19 19 18 17 17 17 16 16 15 15 14 14 13 13 13 13 13 12 12 12 12 12 12 12 12 12 12 11 10 9 9 9 10 10 10 11 12 13 14 15 16 17 17 18 18 17 17 17 17 18 18 18 17 17 17 18 18 18 17 17 17 16
25 25 25 25 25 25 25 25 25 24 24 24 24 23 23 22 22 21 21 21 20 20 20 20 20 19 19 18 18 17 17 17 16 15 15 14 14 14 13 13 12 12 12 12 12 12 12 12 12 12 11 10 10 10 9 10 10 10 11 12 13 14 15 16 17 18 18 18 18 18 17 18 18 18 18 18 18 18 18 19 18 17 17 17 17
Wind_Direction
11 11 11 11 11 11 11 10 10 10 10 10 10 10 10 9 8 8 7 6 6 7 7 8 9 11 13 15 16 16 17 18 19 21 20 22 26 27 27 30 33 35 37 38 39 39 41 45 48 53 59 66 73 82 93 106 116 120 121 122 120 119 123 127 130 133 135 136 138 140 141 142 140 138 138 138 131 115 94 66 44 30 11 5 5
11 11 11 11 11 11 11 10 10 10 10 10 10 10 10 10 9 8 8 7 7 8 8 9 10 12 15 17 17 17 18 19 20 22 22 23 27 28 29 31 33 35 38 40 41 41 44 49 53 57 62 68 76 86 97 106 113 116 117 117 115 117 121 124 127 130 130 132 135 136 136 135 132 133 133 127 117 100 78 55 39 29 16 7 5
11 10 11 10 10 11 10 10 10 10 10 10 10 10 10 10 9 9 9 9 9 9 9 10 12 14 16 19 19 18 20 20 21 23 24 25 28 29 31 33 34 35 37 40 42 43 47 52 57 62 67 73 80 89 98 104 110 113 114 112 113 116 120 121 124 127 127 130 133 132 130 131 131 129 123 112 101 86 69 53 39 29 20 13 7
10 10 11 10 10 10 10 10 10 10 10 10 9 9 10 9 9 9 9 10 10 10 10 12 13 15 17 20 20 20 20 21 22 24 25 27 29 30 31 34 35 36 38 40 41 44 47 50 56 62 69 75 80 87 94 100 105 109 110 110 111 114 118 119 121 123 125 126 126 127 127 128 126 122 116 107 94 79 67 54 40 30 22 14 5
9 9 10 10 10 10 10 9 10 9 9 9 9 9 9 10 10 10 10 11 11 11 12 13 14 16 18 20 22 21 21 21 22 24 26 27 29 30 32 34 35 37 39 41 42 44 47 49 53 59 66 72 78 84 90 96 100 104 107 108 109 111 115 117 117 118 119 119 119 119 118 116 112 108 103 99 93 80 66 54 40 29 21 12 4
8 8 9 9 10 10 10 10 10 9 9 9 9 9 10 10 11 11 11 11 12 13 13 14 16 17 18 20 22 22 21 22 23 24 26 28 29 30 31 33 35 36 38 41 43 44 47 49 52 56 61 68 74 81 86 91 96 100 103 105 106 108 111 112 113 113 112 113 113 111 107 105 102 98 93 88 83 73 60 50 38 27 19 12 5
7 8 8 9 9 10 10 10 10 9 9 9 9 10 10 11 12 12 12 12 13 14 15 16 17 18 19 21 22 22 22 23 23 25 26 28 30 31 31 32 35 36 37 40 43 45 47 49 51 55 59 64 70 77 82 87 92 96 99 103 104 105 107 108 108 108 106 105 104 101 99 98 96 92 89 84 73 60 53 45 35 26 19 12 7
6 7 7 8 9 9 9 10 10 9 9 9 10 10 11 12 13 13 13 13 14 16 16 17 18 19 20 23 23 22 22 23 24 25 26 28 30 32 33 33 34 36 38 40 42 44 47 49 50 53 57 62 67 74 79 84 89 91 95 99 99 98 100 101 100 98 97 97 97 94 93 93 89 83 81 78 66 54 46 39 31 24 17 13 11
5 6 7 8 8 9 9 10 10 9 9 10 10 11 12 13 14 14 15 15 16 17 17 18 19 20 21 22 23 23 23 24 24 24 25 28 31 33 34 35 35 35 38 41 42 43 46 48 50 52 56 60 65 70 75 80 83 85 87 88 89 91 93 94 93 93 92 93 92 90 87 84 78 73 70 64 56 49 42 35 27 18 12 13 14
4 5 6 7 8 9 9 10 10 9 10 10 11 12 13 14 15 15 16 16 17 18 18 19 20 20 21 22 23 23 23 24 23 23 25 27 30 33 34 35 36 36 37 39 41 42 44 46 49 52 55 57 61 65 70 74 78 81 83 83 83 85 87 87 88 89 89 87 85 81 78 74 67 63 60 55 51 45 37 30 24 16 12 14 14
4 4 5 6 7 8 9 10 10 10 10 11 11 12 14 15 16 16 16 17 17 18 19 19 20 20 21 23 23 23 24 23 23 24 25 27 30 32 34 35 36 37 37 38 39 41 43 45 47 51 54 55 57 59 63 67 72 76 79 80 81 81 81 82 82 82 81 80 75 70 67 64 57 52 49 47 45 39 32 27 22 16 15 15 14
3 3 5 5 6 8 8 9 10 10 10 11 12 13 14 16 16 16 17 17 18 18 19 20 20 20 21 23 24 24 23 23 23 24 25 27 29 32 33 34 35 37 37 38 38 39 41 43 45 48 49 50 52 55 57 59 62 67 70 73 75 77 77 77 77 77 77 75 72 66 58 52 48 42 37 33 32 30 29 28 22 18 17 16 16
1 2 3 4 6 7 8 9 10 10 10 11 11 13 14 16 16 16 17 17 18 19 20 21 21 21 22 23 24 24 23 23 23 24 26 27 29 31 34 34 35 36 36 37 37 37 37 39 41 43 44 44 46 49 52 54 57 60 64 66 68 70 72 72 71 70 70 69 66 60 52 45 40 34 27 25 26 27 28 28 23 20 20 18 19
359 1 2 3 5 6 7 9 9 9 10 11 11 13 14 15 16 16 16 17 18 19 20 21 22 22 23 24 24 24 23 23 24 25 26 28 29 31 34 35 35 35 36 36 36 35 35 35 36 37 39 41 43 44 47 54 59 61 62 62 61 61 61 62 62 61 60 60 59 56 51 46 42 36 29 28 31 31 31 30 23 21 22 22 24
357 359 1 2 3 5 7 8 8 9 10 10 12 13 14 14 15 16 16 17 19 19 20 21 22 22 23 24 25 25 24 24 25 26 27 28 29 31 34 35 35 36 36 36 37 36 35 35 34 33 34 38 41 43 48 56 62 63 60 58 56 55 53 52 51 51 53 56 60 60 58 52 48 45 40 37 35 30 30 28 18 15 20 23 27
355 358 0 1 3 4 6 7 8 8 9 10 12 13 14 14 15 16 17 18 19 20 21 22 22 22 23 24 25 26 25 25 26 27 27 28 30 32 34 34 35 36 36 36 36 36 36 36 35 33 33 35 37 39 44 49 54 56 54 52 51 50 48 47 47 48 53 58 62 64 63 57 51 47 42 39 34 26 26 26 16 13 17 18 25
352 356 359 0 2 3 4 6 7 8 8 10 12 13 14 14 14 15 17 19 20 21 22 23 23 23 24 24 24 25 26 26 27 27 28 28 30 32 34 34 35 36 36 36 36 36 36 36 36 35 33 32 31 33 36 39 42 43 41 38 38 36 34 34 37 44 53 58 60 62 61 56 51 46 40 35 31 25 26 26 15 13 18 18 24
350 354 357 359 1 2 4 5 6 7 8 10 11 13 13 13 14 15 17 19 20 22 23 23 24 24 25 25 25 26 26 27 28 28 28 29 31 33 34 35 36 35 35 35 35 35 35 34 35 36 34 31 28 28 30 32 35 36 32 27 24 19 10 6 12 23 34 43 48 52 52 49 46 45 40 35 32 28 28 28 18 16 22 20 22
348 353 356 359 360 1 3 4 6 6 7 10 11 12 12 13 14 15 17 19 21 22 23 24 25 25 25 25 26 26 27 28 28 29 29 30 31 33 34 36 36 35 34 34 34 34 34 33 33 34 34 32 30 29 28 28 30 30 27 24 22 13 3 358 359 360 4 16 28 33 37 40 40 40 39 36 35 33 33 35 29 23 25 23 23
347 352 356 358 359 0 2 3 5 6 7 10 10 11 11 12 13 16 18 19 20 22 23 24 25 26 26 26 26 26 27 28 29 30 30 30 31 33 34 35 35 34 34 34 33 33 33 32 32 31 32 32 32 32 31 29 29 29 26 23 19 11 3 358 355 350 349 1 16 17 18 29 34 36 37 34 34 36 35 37 36 31 30 29 29
346 350 354 356 358 360 1 2 4 5 7 9 10 10 11 11 13 16 18 19 20 21 23 24 25 26 26 26 27 27 27 28 29 31 31 31 32 34 36 35 34 34 34 34 33 33 32 31 30 30 31 32 33 33 33 32 31 31 27 24 18 10 3 358 350 341 335 342 3 12 9 14 23 30 34 32 32 33 33 34 35 35 34 32 31
344 348 352 355 357 358 359 0 2 5 7 8 9 10 10 11 12 15 17 19 20 21 22 23 24 25 26 26 26 27 27 28 29 30 31 32 33 35 37 36 34 34 35 34 32 31 31 30 31 30 30 32 33 34 33 32 31 30 25 21 17 11 8 6 355 338 326 324 337 356 0 1 9 19 26 29 29 30 32 34 34 35 37 35 31
339 345 349 353 355 356 357 360 2 4 6 7 8 9 9 10 11 13 15 17 18 19 21 22 23 24 25 25 25 26 26 27 28 29 30 31 32 34 36 36 35 35 35 35 33 31 30 30 31 31 31 33 33 33 32 31 30 27 22 18 15 13 12 12 3 345 326 316 317 331 342 344 350 359 8 17 20 23 30 33 32 34 36 36 35
335 343 347 350 352 353 356 360 2 3 5 6 6 7 8 8 10 11 13 14 16 18 19 20 21 23 25 25 25 25 25 26 27 27 28 29 31 32 34 35 35 35 36 36 34 33 32 31 31 31 32 33 34 34 33 32 31 29 25 22 19 16 13 10 4 352 335 322 316 313 319 326 328 327 332 351 9 23 33 34 34 37 38 37 37
333 340 343 346 348 351 356 360 1 2 2 3 4 5 6 7 8 9 11 12 14 16 17 18 20 22 24 25 25 24 24 25 25 25 26 27 29 31 32 33 34 35 37 37 36 35 33 32 31 32 33 33 33 33 33 32 31 30 28 26 23 20 15 10 5 1 351 336 325 310 304 310 311 300 294 310 358 36 42 40 43 47 44 40 42
330 336 339 342 345 350 356 358 359 360 1 2 3 3 4 5 6 8 9 10 12 13 14 16 18 20 22 23 24 24 24 24 24 24 25 26 27 29 31 32 33 36 38 39 37 36 35 34 33 33 33 33 32 32 31 29 28 28 27 25 23 20 16 11 8 5 359 347 335 318 300 296 296 290 281 273 289 37 43 46 51 53 49 44 45
326 332 334 337 342 348 353 355 356 358 358 360 1 2 3 3 3 5 6 8 10 12 13 14 15 17 20 21 22 23 23 23 23 24 25 25 25 26 29 30 32 35 37 37 36 35 35 35 35 35 35 34 34 33 31 29 27 25 24 23 22 20 18 15 12 8 2 354 344 329 305 289 285 283 274 252 238 299 32 65 65 59 56 52 50
321 326 329 333 339 344 348 350 352 354 355 358 359 0 1 2 2 3 3 4 6 9 11 13 13 15 17 19 20 21 22 22 22 23 23 25 25 26 29 30 30 33 34 33 34 34 35 34 34 34 34 34 33 32 31 30 28 26 24 23 22 21 20 19 18 15 10 3 355 345 327 303 287 280 268 242 227 245 282 102 93 71 62 60 54
315 319 322 327 333 338 342 345 348 350 353 356 358 358 359 0 1 2 3 4 5 7 9 11 12 14 16 17 18 19 20 20 21 20 21 23 26 28 29 29 30 31 30 29 32 34 33 32 32 32 33 33 32 32 31 31 30 29 27 25 24 23 21 20 20 20 16 11 6 360 351 330 301 282 263 239 225 228 235 160 117 87 66 67 60
306 311 315 319 326 331 336 340 343 346 350 354 356 358 0 1 1 2 2 4 7 8 9 11 11 13 15 17 19 19 19 19 19 19 20 22 24 27 28 28 29 30 29 29 32 34 33 32 32 32 32 33 32 32 31 31 31 30 29 27 26 25 23 21 21 20 19 18 14 9 3 348 319 290 261 242 232 229 229 210 155 122 81 71 69
299 304 308 312 318 324 329 333 337 340 344 348 350 353 356 359 1 2 2 2 5 7 9 11 12 12 14 16 17 19 19 19 18 18 19 20 21 24 26 27 28 28 28 31 34 34 33 33 33 32 32 32 32 31 31 31 30 30 30 28 27 26 25 24 22 20 20 20 19 16 13 3 331 298 268 249 241 233 228 220 194 165 145 100 81
293 297 302 306 310 317 323 327 330 334 337 340 342 345 348 350 353 357 359 360 1 4 6 7 9 11 12 13 14 15 16 16 16 17 17 17 19 22 24 26 26 26 27 31 34 33 32 32 32 31 30 31 30 30 29 29 29 29 29 29 28 27 26 25 24 23 21 20 20 19 18 11 348 301 273 257 247 235 227 222 216 209 208 192 126
288 292 297 300 303 309 316 320 323 327 329 331 333 336 339 342 345 349 352 355 357 359 2 3 5 7 10 11 12 13 13 13 13 14 14 14 16 19 21 23 25 26 27 31 32 32 31 31 30 30 29 28 28 28 28 28 27 28 28 28 27 27 26 25 25 25 24 22 21 21 19 15 5 325 273 259 251 240 231 227 223 222 226 226 216
284 288 291 293 297 303 309 314 318 321 323 324 326 328 331 335 338 341 344 346 349 352 355 357 359 1 4 7 9 10 11 10 10 11 11 12 13 14 15 19 23 25 26 29 30 30 29 29 28 28 27 27 26 26 26 26 25 26 26 26 26 26 26 25 25 26 26 25 24 23 22 19 15 0 304 267 259 251 241 235 230 225 231 237 237
279 285 287 289 293 299 305 309 314 317 319 320 322 324 327 330 332 334 336 337 339 343 346 349 351 355 357 0 3 6 7 8 9 9 10 11 11 11 13 16 19 21 23 25 27 27 27 27 26 26 25 25 25 24 24 24 23 23 24 24 24 24 24 25 25 25 25 25 24 24 24 23 21 15 354 297 270 265 257 250 244 236 236 243 244
273 279 282 285 291 297 302 306 311 314 316 318 319 321 324 325 327 329 331 332 333 336 339 342 345 348 350 353 356 360 3 5 6 8 9 10 10 11 15 17 17 17 18 21 23 24 24 24 24 24 24 24 23 23 23 23 22 22 22 22 22 21 22 22 23 23 24 25 25 24 25 25 24 21 15 355 298 268 263 260 255 248 245 247 246
268 274 278 282 288 295 299 303 306 309 311 313 315 316 319 321 323 324 326 327 327 329 332 334 336 339 341 343 347 352 355 357 359 1 4 6 8 11 14 15 14 14 15 16 18 19 21 21 21 21 22 22 22 21 21 21 21 21 21 21 21 20 20 20 20 21 22 24 24 24 24 24 23 21 19 14 354 298 270 264 261 257 254 252 248
265 271 275 278 284 291 296 298 301 303 305 308 309 311 313 316 317 318 320 321 322 323 325 326 327 329 332 333 336 340 344 346 348 352 356 360 3 7 9 10 11 11 11 11 12 14 16 16 17 18 18 19 20 19 19 19 19 19 19 20 19 18 18 18 19 19 20 21 22 22 23 22 22 21 20 17 10 350 304 276 267 263 259 256 252
266 270 274 276 281 287 292 294 296 298 300 302 304 305 307 309 311 312 313 315 317 319 321 321 322 323 325 326 327 330 334 336 340 345 349 353 357 359 1 3 6 7 7 7 8 9 10 11 12 13 14 15 16 17 16 16 17 17 17 17 17 17 17 17 17 17 17 18 19 20 20 20 21 21 20 18 14 7 348 310 280 270 265 259 255
267 271 273 274 279 285 288 290 292 294 296 297 299 300 300 303 305 306 308 310 312 315 317 318 319 319 320 320 322 325 327 329 332 335 339 342 346 350 353 355 357 360 1 2 3 4 5 6 6 7 9 10 12 13 13 13 13 14 15 15 15 15 16 15 15 15 15 15 16 17 17 17 18 18 18 17 15 12 5 348 312 282 270 264 260
268 271 271 271 276 282 285 286 289 290 291 293 294 295 295 296 298 301 303 305 308 311 313 314 316 317 317 318 320 321 321 321 323 326 329 332 334 338 342 345 348 350 352 354 357 358 359 0 1 2 4 5 7 9 10 10 11 11 12 12 13 13 13 13 13 12 12 12 13 13 13 13 15 15 14 14 14 12 9 4 349 316 284 270 265
268 271 272 272 275 279 282 283 285 287 288 289 291 291 290 291 292 295 297 300 303 306 308 310 312 313 314 314 316 316 315 314 314 315 318 321 323 326 330 334 338 341 343 345 348 350 352 354 355 356 358 0 2 4 5 6 7 8 9 9 10 10 11 11 10 10 9 8 9 9 9 8 10 11 10 10 11 11 9 7 3 351 322 289 272
268 272 274 274 275 277 279 281 283 284 285 286 288 288 287 287 289 291 293 296 299 301 303 304 305 307 308 309 310 311 310 308 307 308 310 312 313 315 319 323 327 331 334 337 339 342 345 347 349 350 353 355 357 359 0 2 4 5 5 6 7 7 8 8 8 8 7 6 5 5 4 4 6 7 6 6 7 7 6 5 3 360 350 327 294
269 273 275 276 277 278 279 280 281 282 282 283 284 284 284 285 287 288 289 291 293 295 297 297 298 300 303 306 307 307 305 302 302 304 306 307 308 310 312 314 317 320 324 328 330 333 337 340 342 344 346 348 351 353 355 357 360 2 3 3 3 4 5 5 6 6 5 4 3 2 1 1 2 3 2 2 3 3 2 1 360 358 355 347 328
270 273 275 276 276 277 278 279 280 280 280 280 281 282 282 283 284 284 284 285 288 290 291 290 291 295 299 302 303 303 300 298 299 300 301 302 305 307 309 310 311 313 316 320 323 326 329 332 334 337 339 341 344 346 348 351 355 358 360 1 1 1 1 2 2 2 2 1 0 359 358 358 360 359 358 358 359 358 358 357 356 354 352 349 342
270 272 273 274 275 276 277 278 278 278 278 279 279 279 279 279 280 281 280 281 283 285 284 284 286 291 295 298 300 299 297 295 295 296 296 297 299 302 305 307 308 309 311 313 316 320 322 324 326 329 332 334 337 339 342 345 349 352 355 357 358 359 359 358 358 359 359 358 358 356 355 356 356 356 355 354 355 354 354 353 353 351 350 347 343
270 271 272 273 274 274 275 276 277 277 277 278 278 276 276 276 278 278 277 276 278 279 279 280 282 286 289 292 294 295 293 293 293 292 293 294 295 297 300 302 303 304 306 308 310 313 316 317 319 321 325 327 330 333 336 339 343 346 350 353 355 356 356 355 354 355 356 355 354 353 353 353 353 352 351 351 351 351 350 350 349 348 347 345 342
270 271 272 273 274 274 274 274 275 276 277 276 275 274 275 275 276 276 275 274 274 274 274 276 279 281 283 287 289 290 290 290 290 289 289 290 292 294 296 297 299 301 303 305 307 308 310 312 314 315 317 321 324 327 330 334 339 341 345 349 352 352 352 352 353 353 352 351 350 350 350 351 350 349 348 348 347 347 347 346 345 345 344 343 341
270 272 273 274 274 273 273 274 274 274 275 275 274 273 275 275 275 274 273 272 272 271 271 273 275 277 279 282 285 286 286 285 285 285 286 287 289 292 294 296 298 300 301 302 303 303 305 308 311 311 312 315 319 321 325 330 334 337 341 345 347 348 349 350 351 351 350 349 348 347 348 348 347 347 346 345 344 344 344 343 342 341 341 340 339
272 273 273 274 273 272 273 274 274 274 274 274 273 272 273 274 274 273 272 271 271 271 270 270 272 274 276 278 280 282 282 281 280 280 282 283 285 288 292 294 296 298 298 299 299 299 302 306 308 308 309 311 314 317 321 325 329 333 338 341 343 344 346 348 348 348 348 347 346 345 345 345 345 344 344 343 342 341 341 340 339 338 339 338 337
272 273 273 273 273 273 273 273 274 274 274 273 272 271 271 272 272 271 271 270 270 270 269 269 270 271 273 275 277 279 279 278 277 277 278 279 281 284 288 290 292 294 296 296 296 297 301 304 304 304 304 307 310 313 317 322 325 329 333 337 339 341 343 344 345 346 346 345 344 343 342 342 342 342 342 342 341 339 338 338 337 336 336 336 334